Time,TemperatureF,DewpointF,PressureIn,WindDirection,WindDirectionDegrees,WindSpeedMPH,WindSpeedGustMPH,Humidity,HourlyPrecipIn,Conditions,Clouds,dailyrainin,SoftwareType,DateUTC
2013-09-08 00:00:00,62.0,58.0,30.00,NE,38,4.0,6.0,87,0.00,,,0.00,weatherlink.com 1.10,2013-09-08 07:00:00,
2013-09-08 00:15:00,62.1,58.0,30.00,NE,49,4.0,8.0,87,0.00,,,0.00,weatherlink.com 1.10,2013-09-08 07:15:00,
2013-09-08 00:30:00,61.9,58.0,30.00,NNE,12,1.0,4.0,87,0.00,,,0.00,weatherlink.com 1.10,2013-09-08 07:30:00,
2013-09-08 00:45:00,61.9,58.0,30.00,NE,43,4.0,8.0,87,0.00,,,0.00,weatherlink.com 1.10,2013-09-08 07:45:00,
2013-09-08 01:00:00,62.5,58.0,30.01,NE,45,7.0,9.0,85,0.00,,,0.00,weatherlink.com 1.10,2013-09-08 08:00:00,
2013-09-08 01:15:00,61.7,58.0,30.01,NNE,32,6.0,10.0,86,0.00,,,0.00,weatherlink.com 1.10,2013-09-08 08:15:00,
2013-09-08 01:30:00,61.2,57.0,30.01,NE,47,7.0,8.0,87,0.00,,,0.00,weatherlink.com 1.10,2013-09-08 08:30:00,
2013-09-08 01:45:00,61.6,57.0,30.01,NE,48,4.0,10.0,86,0.00,,,0.00,weatherlink.com 1.10,2013-09-08 08:45:00,
2013-09-08 02:00:00,60.5,57.0,30.01,ENE,58,5.0,7.0,87,0.00,,,0.00,weatherlink.com 1.10,2013-09-08 09:00:00,
2013-09-08 02:15:00,60.0,57.0,30.02,NNE,25,5.0,7.0,89,0.00,,,0.00,weatherlink.com 1.10,2013-09-08 09:15:00,
2013-09-08 02:30:00,60.9,57.0,30.02,NE,51,4.0,7.0,88,0.00,,,0.00,weatherlink.com 1.10,2013-09-08 09:30:00,
2013-09-08 02:45:00,60.6,57.0,30.02,NE,41,0.0,5.0,88,0.00,,,0.00,weatherlink.com 1.10,2013-09-08 09:45:00,
2013-09-08 03:00:00,60.5,57.0,30.03,NE,42,0.0,2.0,88,0.00,,,0.00,weatherlink.com 1.10,2013-09-08 10:00:00,
2013-09-08 03:15:00,60.3,57.0,30.02,NE,45,2.0,4.0,88,0.00,,,0.00,weatherlink.com 1.10,2013-09-08 10:15:00,
2013-09-08 03:30:00,59.7,57.0,30.02,NE,44,2.0,3.0,89,0.00,,,0.00,weatherlink.com 1.10,2013-09-08 10:30:00,
2013-09-08 03:45:00,59.5,56.0,30.03,NE,50,2.0,5.0,89,0.00,,,0.00,weatherlink.com 1.10,2013-09-08 10:45:00,
2013-09-08 04:00:00,59.7,57.0,30.03,NNE,30,3.0,5.0,89,0.00,,,0.00,weatherlink.com 1.10,2013-09-08 11:00:00,
2013-09-08 04:15:00,59.0,56.0,30.03,NE,48,3.0,4.0,89,0.00,,,0.00,weatherlink.com 1.10,2013-09-08 11:15:00,
2013-09-08 04:30:00,58.6,56.0,30.03,NE,48,4.0,5.0,91,0.00,,,0.00,weatherlink.com 1.10,2013-09-08 11:30:00,
2013-09-08 04:45:00,58.4,56.0,30.03,NE,45,4.0,7.0,91,0.00,,,0.00,weatherlink.com 1.10,2013-09-08 11:45:00,
2013-09-08 05:00:00,58.0,55.0,30.03,NE,46,4.0,6.0,91,0.00,,,0.00,weatherlink.com 1.10,2013-09-08 12:00:00,
2013-09-08 05:15:00,57.6,55.0,30.03,NE,40,3.0,5.0,92,0.00,,,0.00,weatherlink.com 1.10,2013-09-08 12:15:00,
2013-09-08 05:30:00,56.9,55.0,30.04,NE,47,4.0,5.0,92,0.00,,,0.00,weatherlink.com 1.10,2013-09-08 12:30:00,
2013-09-08 05:45:00,56.6,55.0,30.04,NE,55,4.0,6.0,93,0.00,,,0.00,weatherlink.com 1.10,2013-09-08 12:45:00,
2013-09-08 06:00:00,56.3,54.0,30.04,NE,45,4.0,6.0,93,0.00,,,0.00,weatherlink.com 1.10,2013-09-08 13:00:00,
2013-09-08 06:16:00,56.4,55.0,30.05,NE,51,4.0,6.0,93,0.00,,,0.00,weatherlink.com 1.10,2013-09-08 13:16:00,
2013-09-08 06:31:00,56.0,54.0,30.05,NE,47,5.0,6.0,94,0.00,,,0.00,weatherlink.com 1.10,2013-09-08 13:31:00,
2013-09-08 06:46:00,55.9,54.0,30.05,NE,34,2.0,5.0,93,0.00,,,0.00,weatherlink.com 1.10,2013-09-08 13:46:00,
2013-09-08 07:01:00,55.9,54.0,30.06,NE,41,6.0,6.0,93,0.00,,,0.00,weatherlink.com 1.10,2013-09-08 14:01:00,
2013-09-08 07:16:00,56.2,55.0,30.06,NE,48,5.0,8.0,94,0.00,,,0.00,weatherlink.com 1.10,2013-09-08 14:16:00,
2013-09-08 07:31:00,56.8,55.0,30.06,NE,45,4.0,8.0,94,0.00,,,0.00,weatherlink.com 1.10,2013-09-08 14:31:00,
2013-09-08 07:46:00,57.5,56.0,30.06,NE,53,4.0,7.0,93,0.00,,,0.00,weatherlink.com 1.10,2013-09-08 14:46:00,
2013-09-08 08:01:00,58.6,56.0,30.07,NE,41,3.0,5.0,92,0.00,,,0.00,weatherlink.com 1.10,2013-09-08 15:01:00,
2013-09-08 08:16:00,59.5,57.0,30.06,NE,43,2.0,5.0,91,0.00,,,0.00,weatherlink.com 1.10,2013-09-08 15:16:00,
2013-09-08 08:31:00,60.6,57.0,30.06,NE,43,0.0,5.0,89,0.00,,,0.00,weatherlink.com 1.10,2013-09-08 15:31:00,
2013-09-08 08:46:00,61.2,57.0,30.05,ESE,108,0.0,4.0,87,0.00,,,0.00,weatherlink.com 1.10,2013-09-08 15:46:00,
2013-09-08 09:01:00,62.1,58.0,30.05,ESE,108,0.0,3.0,85,0.00,,,0.00,weatherlink.com 1.10,2013-09-08 16:01:00,
2013-09-08 09:16:00,63.6,58.0,30.05,SSE,147,0.0,2.0,83,0.00,,,0.00,weatherlink.com 1.10,2013-09-08 16:16:00,
2013-09-08 09:31:00,67.2,60.0,30.06,SSE,149,0.0,1.0,77,0.00,,,0.00,weatherlink.com 1.10,2013-09-08 16:31:00,
2013-09-08 09:46:00,68.0,59.0,30.06,South,173,1.0,3.0,74,0.00,,,0.00,weatherlink.com 1.10,2013-09-08 16:46:00,
2013-09-08 10:01:00,69.3,61.0,30.06,South,191,1.0,4.0,74,0.00,,,0.00,weatherlink.com 1.10,2013-09-08 17:01:00,
2013-09-08 10:16:00,68.9,60.0,30.06,SSW,197,2.0,4.0,74,0.00,,,0.00,weatherlink.com 1.10,2013-09-08 17:16:00,
2013-09-08 10:31:00,70.5,60.0,30.06,SSW,206,2.0,5.0,70,0.00,,,0.00,weatherlink.com 1.10,2013-09-08 17:31:00,
2013-09-08 10:46:00,71.2,59.0,30.06,SSW,206,2.0,4.0,65,0.00,,,0.00,weatherlink.com 1.10,2013-09-08 17:46:00,
2013-09-08 11:01:00,72.2,61.0,30.06,SSW,206,2.0,4.0,67,0.00,,,0.00,weatherlink.com 1.10,2013-09-08 18:01:00,
2013-09-08 11:16:00,74.4,61.0,30.05,SSW,205,3.0,3.0,63,0.00,,,0.00,weatherlink.com 1.10,2013-09-08 18:16:00,
2013-09-08 11:31:00,76.7,60.0,30.05,SSW,211,3.0,4.0,57,0.00,,,0.00,weatherlink.com 1.10,2013-09-08 18:31:00,
2013-09-08 11:46:00,77.7,60.0,30.05,SW,223,3.0,5.0,54,0.00,,,0.00,weatherlink.com 1.10,2013-09-08 18:46:00,
2013-09-08 12:01:00,77.3,58.0,30.04,SSW,203,3.0,4.0,52,0.00,,,0.00,weatherlink.com 1.10,2013-09-08 19:01:00,
2013-09-08 12:16:00,80.3,59.0,30.03,SSW,196,2.0,4.0,49,0.00,,,0.00,weatherlink.com 1.10,2013-09-08 19:16:00,
2013-09-08 12:31:00,79.2,58.0,30.03,SSW,196,2.0,4.0,49,0.00,,,0.00,weatherlink.com 1.10,2013-09-08 19:31:00,
2013-09-08 12:46:00,79.1,58.0,30.02,SSW,196,3.0,4.0,48,0.00,,,0.00,weatherlink.com 1.10,2013-09-08 19:46:00,
2013-09-08 13:01:00,81.7,58.0,30.02,SSW,197,3.0,4.0,45,0.00,,,0.00,weatherlink.com 1.10,2013-09-08 20:01:00,
2013-09-08 13:16:00,82.6,59.0,30.01,SSW,203,3.0,4.0,44,0.00,,,0.00,weatherlink.com 1.10,2013-09-08 20:16:00,
2013-09-08 13:31:00,82.7,57.0,30.01,SSW,204,4.0,4.0,42,0.00,,,0.00,weatherlink.com 1.10,2013-09-08 20:31:00,
2013-09-08 13:46:00,83.2,57.0,30.00,SSW,206,3.0,4.0,41,0.00,,,0.00,weatherlink.com 1.10,2013-09-08 20:46:00,
2013-09-08 14:01:00,85.1,55.0,30.00,SSW,202,2.0,4.0,36,0.00,,,0.00,weatherlink.com 1.10,2013-09-08 21:01:00,
2013-09-08 14:17:00,85.0,57.0,29.99,SSW,204,2.0,4.0,39,0.00,,,0.00,weatherlink.com 1.10,2013-09-08 21:17:00,
2013-09-08 14:32:00,83.7,56.0,29.99,SSW,204,2.0,3.0,39,0.00,,,0.00,weatherlink.com 1.10,2013-09-08 21:32:00,
2013-09-08 14:47:00,84.8,56.0,29.98,SSW,204,2.0,4.0,37,0.00,,,0.00,weatherlink.com 1.10,2013-09-08 21:47:00,
2013-09-08 15:02:00,85.0,56.0,29.98,SSW,204,2.0,4.0,37,0.00,,,0.00,weatherlink.com 1.10,2013-09-08 22:02:00,
2013-09-08 15:17:00,84.3,56.0,29.97,SW,218,2.0,5.0,38,0.00,,,0.00,weatherlink.com 1.10,2013-09-08 22:17:00,
2013-09-08 15:32:00,84.3,56.0,29.96,SW,223,2.0,4.0,38,0.00,,,0.00,weatherlink.com 1.10,2013-09-08 22:32:00,
2013-09-08 15:47:00,86.0,56.0,29.95,SSW,195,2.0,3.0,36,0.00,,,0.00,weatherlink.com 1.10,2013-09-08 22:47:00,
2013-09-08 16:02:00,85.1,57.0,29.95,SW,215,2.0,4.0,38,0.00,,,0.00,weatherlink.com 1.10,2013-09-08 23:02:00,
2013-09-08 16:17:00,84.8,59.0,29.94,SW,236,1.0,4.0,41,0.00,,,0.00,weatherlink.com 1.10,2013-09-08 23:17:00,
2013-09-08 16:32:00,84.3,60.0,29.94,SW,233,2.0,6.0,44,0.00,,,0.00,weatherlink.com 1.10,2013-09-08 23:32:00,
2013-09-08 16:47:00,84.1,59.0,29.93,WSW,242,3.0,9.0,43,0.00,,,0.00,weatherlink.com 1.10,2013-09-08 23:47:00,
2013-09-08 17:02:00,83.7,58.0,29.93,WSW,257,7.0,9.0,42,0.00,,,0.00,weatherlink.com 1.10,2013-09-09 00:02:00,
2013-09-08 17:17:00,82.6,60.0,29.93,SW,228,2.0,11.0,46,0.00,,,0.00,weatherlink.com 1.10,2013-09-09 00:17:00,
2013-09-08 17:32:00,82.3,59.0,29.92,West,263,5.0,11.0,46,0.00,,,0.00,weatherlink.com 1.10,2013-09-09 00:32:00,
2013-09-08 17:47:00,81.9,61.0,29.92,West,280,5.0,12.0,50,0.00,,,0.00,weatherlink.com 1.10,2013-09-09 00:47:00,
2013-09-08 18:02:00,81.2,62.0,29.91,West,268,1.0,8.0,53,0.00,,,0.00,weatherlink.com 1.10,2013-09-09 01:02:00,
2013-09-08 18:17:00,80.7,63.0,29.91,WSW,250,0.0,8.0,55,0.00,,,0.00,weatherlink.com 1.10,2013-09-09 01:17:00,
2013-09-08 18:32:00,80.5,63.0,29.91,West,270,0.0,7.0,55,0.00,,,0.00,weatherlink.com 1.10,2013-09-09 01:32:00,
2013-09-08 18:47:00,79.6,64.0,29.91,NNE,32,1.0,4.0,60,0.00,,,0.00,weatherlink.com 1.10,2013-09-09 01:47:00,
2013-09-08 19:02:00,78.8,62.0,29.91,NNE,32,2.0,3.0,56,0.00,,,0.00,weatherlink.com 1.10,2013-09-09 02:02:00,
2013-09-08 19:17:00,78.8,62.0,29.91,West,266,1.0,5.0,56,0.00,,,0.00,weatherlink.com 1.10,2013-09-09 02:17:00,
2013-09-08 19:32:00,79.1,61.0,29.91,WNW,299,2.0,5.0,54,0.00,,,0.00,weatherlink.com 1.10,2013-09-09 02:32:00,
2013-09-08 19:47:00,78.9,61.0,29.92,NNE,13,0.0,5.0,55,0.00,,,0.00,weatherlink.com 1.10,2013-09-09 02:47:00,
2013-09-08 20:02:00,78.3,61.0,29.92,North,353,4.0,6.0,55,0.00,,,0.00,weatherlink.com 1.10,2013-09-09 03:02:00,
2013-09-08 20:17:00,78.2,61.0,29.92,SSW,192,0.0,13.0,56,0.00,,,0.00,weatherlink.com 1.10,2013-09-09 03:17:00,
2013-09-08 20:32:00,77.6,62.0,29.92,WSW,242,2.0,7.0,58,0.00,,,0.00,weatherlink.com 1.10,2013-09-09 03:32:00,
2013-09-08 20:47:00,76.0,64.0,29.93,WSW,252,4.0,7.0,67,0.00,,,0.00,weatherlink.com 1.10,2013-09-09 03:47:00,
2013-09-08 21:02:00,75.1,64.0,29.93,West,269,3.0,12.0,68,0.00,,,0.00,weatherlink.com 1.10,2013-09-09 04:02:00,
2013-09-08 21:17:00,75.3,62.0,29.93,WSW,257,6.0,8.0,64,0.00,,,0.00,weatherlink.com 1.10,2013-09-09 04:17:00,
2013-09-08 21:32:00,75.1,62.0,29.93,WNW,284,4.0,15.0,65,0.00,,,0.00,weatherlink.com 1.10,2013-09-09 04:32:00,
2013-09-08 21:47:00,74.9,62.0,29.93,SW,224,5.0,10.0,65,0.00,,,0.00,weatherlink.com 1.10,2013-09-09 04:47:00,
2013-09-08 22:02:00,74.3,63.0,29.94,SW,236,4.0,10.0,67,0.00,,,0.00,weatherlink.com 1.10,2013-09-09 05:02:00,
2013-09-08 22:17:00,73.7,62.0,29.94,NW,306,5.0,9.0,68,0.00,,,0.00,weatherlink.com 1.10,2013-09-09 05:17:00,
2013-09-08 22:32:00,72.6,62.0,29.94,WSW,252,3.0,8.0,69,0.00,,,0.00,weatherlink.com 1.10,2013-09-09 05:32:00,
2013-09-08 22:47:00,71.1,62.0,29.94,West,265,0.0,9.0,72,0.00,,,0.00,weatherlink.com 1.10,2013-09-09 05:47:00,
2013-09-08 23:02:00,68.5,61.0,29.94,NE,37,4.0,5.0,76,0.00,,,0.00,weatherlink.com 1.10,2013-09-09 06:02:00,
2013-09-08 23:17:00,67.5,61.0,29.94,NE,35,3.0,7.0,79,0.00,,,0.00,weatherlink.com 1.10,2013-09-09 06:17:00,
2013-09-08 23:32:00,67.4,61.0,29.95,NNE,26,2.0,6.0,79,0.00,,,0.00,weatherlink.com 1.10,2013-09-09 06:32:00,
2013-09-08 23:47:00,66.1,60.0,29.95,NE,39,5.0,7.0,81,0.00,,,0.00,weatherlink.com 1.10,2013-09-09 06:47:00,